www.pogodaiklimat.ru

Погода и климат >> Архив погоды >> Россия >> Якутия >> Белая Гора


ПОГОДА в Белой Горе

  • Прогноз погоды в Белой Горе
  • Монитор погоды в Белой Горе
  • Климат города

АРХИВ ПОГОДЫ в Белой Горе

Время (UTC), дата Ветер
(напр.,м/с)
 
Видим.   Явления Облачность Т
(С)
Тd
(С)
f
(%)
Тe
(С)
Тes
(С)
Комфортность P
(гПа)
Po
(гПа)
Тmin
(С)
Tmax
(С)
R
(мм)
R24
(мм)
S
(см)
18 16.10 С 4 н/о н/о -4.9 -5.9 93 -11 -11 1026.6 1020.9
21 16.10 С 2 н/о н/о -6.6 -7.1 96 -11 -11 1027.7 1021.9 -6.6
00 17.10 СЗ 2 10 км слабый снег 10/8 300 м
[Cb cap As trans]
-6.3 -7.1 94 -11 -11 1027.9 1022.5
03 17.10 С 2 10 км слабый снег 10/8 300 м
[Cb cap As trans]
-4.8 -6.1 91 -9 -9 1027.9 1022.5
06 17.10 С 4 10 км слабый снег 10/8 300 м
[St As trans]
-4.8 -6.9 85 -11 -11 1028.3 1023.0
09 17.10 С 3 н/о н/о -5.0 -6.4 90 -11 -11 1029.3 1023.5 -3.9
12 17.10 С 2 н/о н/о -6.1 -6.6 96 -11 -11 1029.5 1023.7
15 17.10 С 2 н/о н/о -6.8 -7.2 97 -11 -11 1029.3 1023.5
18 17.10 СЗ 1 н/о н/о -8.1 -8.5 97 -11 -11 1029.7 1023.9
21 17.10 штиль 0 н/о н/о -9.0 -9.5 96 -10 -10 1030.2 1024.3 -9.0
00 18.10 ЮЗ 1 10 км слабый снег 10/4 300 м
[Sc As trans]
-9.4 -10.2 94 -12 -12 1030.2 1024.7
03 18.10 СВ 1 4000 м слабый снег 10/8 600 м
[Cb cap As trans]
-6.1 -7.6 89 -9 -9 1030.1 1024.7
06 18.10 штиль 0 10 км слабый снег 10/6 600 м
[Sc As trans]
-6.6 -8.2 88 -7 -7 1030.6 1025.2
09 18.10 СВ 2 н/о н/о -7.5 -8.8 90 -12 -12 1031.4 1025.6 -5.7
12 18.10 штиль 0 н/о н/о -8.4 -9.1 95 -9 -9 1031.7 1025.8
15 18.10 С 1 н/о н/о -8.6 -9.1 96 -11 -11 1031.8 1026.0
18 18.10 СВ 1 н/о н/о -9.5 -10.0 96 -12 -12 1031.6 1025.8
21 18.10 штиль 0 н/о н/о -10.6 -11.3 95 -11 -11 1031.6 1025.7 -10.6
00 19.10 штиль 0 50 км {снег} 10/6 300 м
[Sc As trans]
-9.6 -10.9 90 -10 -10 1031.4 1025.9
03 19.10 СВ 1 50 км 10/0
[As op]
-9.1 -10.6 96 -11 -11 1030.9 1025.4
06 19.10 В 1 50 км 10/0
[As op]
-11.3 -11.8 96 -14 -14 1031.1 1025.6
09 19.10 штиль 0 н/о н/о -11.8 -12.6 94 -12 -12 1031.7 1025.8 -8.2
12 19.10 ЮЗ 1 н/о н/о -12.4 -13.1 94 -15 -15 1032.0 1026.1
15 19.10 ЮЗ 1 н/о н/о -12.2 -13.1 93 -14 -14 1032.1 1026.1
18 19.10 ЮЗ 1 н/о н/о -12.7 -13.7 92 -15 -15 1032.5 1026.5
21 19.10 ЮЗ 1 н/о н/о -13.0 -14.0 92 -15 -15 1033.1 1027.1 -13.0
00 20.10 штиль 0 10 км слабый снег 8/5 300 м
[St As trans]
-12.4 -13.5 91 -12 -12 1033.3 1027.7
03 20.10 З 1 50 км 5/0
[As trans]
-9.4 -11.9 82 -12 -11 1033.3 1027.8
06 20.10 Ю 1 50 км 4/0
[Ac lent]
-11.5 -12.5 92 -14 -14 1034.1 1028.5
09 20.10 Ю 1 н/о н/о -11.6 -12.9 90 -14 -14 1035.3 1029.4 -8.3
12 20.10 Ю 1 н/о н/о -11.5 -12.8 90 -14 -14 1035.8 1029.9
15 20.10 Ю 1 н/о н/о -11.4 -12.4 92 -14 -14 1036.2 1030.3
18 20.10 Ю 2 н/о н/о -11.8 -13.4 88 -16 -16 1036.6 1030.6
21 20.10 Ю 1 н/о н/о -13.0 -14.1 91 -15 -15 1036.8 1030.8 -13.1
00 21.10 Ю 2 н/о н/о -14.1 -15.3 91 -19 -19 1037.2 1031.2 -14.1
03 21.10 З 1 н/о н/о -14.0 -15.3 90 -16 -16 1037.0 1031.0
06 21.10 штиль 0 н/о н/о -14.8 -15.9 91 -15 -15 1037.0 1031.0
09 21.10 ЮЗ 1 н/о н/о -22.5 -24.4 84 -26 -26 1037.4 1031.1 -13.0
12 21.10 штиль 0 н/о н/о -22.5 -24.3 85 -23 -23 1036.8 1030.6
15 21.10 штиль 0 н/о н/о -24.8 -27.1 81 -25 -25 1036.0 1029.7
18 21.10 штиль 0 н/о н/о -23.1 -25.2 83 -23 -23 1035.5 1029.2
21 21.10 штиль 0 н/о н/о -22.2 -24.1 84 -22 -22 1034.5 1028.3 -25.6
00 22.10 Ю 1 н/о н/о -18.4 -20.0 87 -21 -21 1033.1 1027.1
03 22.10 В 1 н/о н/о -18.1 -19.6 88 -21 -21 1031.0 1024.9
06 22.10 штиль 0 н/о н/о -19.0 -20.7 86 -19 -19 1029.0 1023.0
09 22.10 штиль 0 н/о н/о -19.6 -21.4 86 -20 -20 1026.1 1020.0 -17.7
12 22.10 штиль 0 н/о н/о -20.8 -22.7 85 -21 -21 1023.2 1017.2
15 22.10 штиль 0 н/о н/о -19.9 -21.7 86 -20 -20 1020.2 1014.2
18 22.10 штиль 0 н/о н/о -19.7 -21.4 86 -20 -20 1017.5 1011.5
21 22.10 ЮЗ 1 н/о н/о -18.3 -19.9 87 -21 -21 1015.4 1009.5 -21.9
00 23.10 ЮЗ 1 50 км 9/5 600 м
[Sc As trans]
-16.3 -17.7 89 -19 -19 1013.3 1007.8
03 23.10 З 2 50 км 9/0
[Sc As trans]
-16.8 -18.3 88 -22 -22 1012.2 1006.7
06 23.10 ЮЗ 1 50 км 10/0
[Sc]
-18.3 -19.9 87 -21 -21 1011.5 1005.9
09 23.10 ЮЗ 1 н/о н/о -19.3 -21.0 86 -22 -22 1011.5 1005.5 -15.5
12 23.10 ЮЗ 1 н/о н/о -19.1 -20.7 87 -22 -22 1011.1 1005.1
15 23.10 З 1 н/о н/о -19.8 -21.5 86 -23 -23 1010.6 1004.6

 

Местоположение метеостанции Белая Гора (Якутия, Россия): широта 68.55 долгота 146.20 высота над уровнем моря 41 м.

В архиве по умолчанию представлена погода в Белой Горе за последнюю неделю. Архивные данные за месяц целиком и за предыдущие месяцы, начиная с января 2011 года, Вы можете получить, выбрав интересующий диапазон дат из раскрывающегося списка и нажав кнопку "Ввод!".

Внимание! Время в таблицах - всемирное. Для получения местного времени необходимо прибавить поправку, которая в Белой Горе равна 11 ч.

Смотрите также архив погоды в соседних городах и на ближайших метеорологических станциях:

Погода в Чокурдахе (Якутия, Россия) (238 км)
Погода в Усть-Моме (Якутия, Россия) (266 км)
Погода в Депутатском (Якутия, Россия) (272 км)
Погода в Среднеколымске (Якутия, Россия) (335 км)
Погода в Андрюшкино (Якутия, Россия) (340 км)
Погода в Зырянке (Якутия, Россия) (373 км)
Погода в Усть-Куйге (Якутия, Россия) (447 км)
Погода в Усть-Чарках (Якутия, Россия) (449 км)
Погода в Юбилейной (Якутия, Россия) (458 км)
Погода в Усть-Нере (Якутия, Россия) (468 км)

Пояснения к столбцам:

Ветер - указаны скорость ветра в м/с - средняя за 10 мин, порывы в срок и между сроками (в фигурных скобках) и направление, откуда дует ветер: С - северный, СВ - северо-восточный, В - восточный, ЮВ - юго-восточный, Ю - южный, ЮЗ - юго-западный, З - западный, СЗ - северо-западный.
Видимость - горизонтальная дальность видимости в метрах или километрах. При видимости от 1 до 10 км при отсутствии осадков обычно наблюдается дымка, при ухудшении видимости до 1 км и менее - туман. В сухую погоду видимость может ухудшаться дымом, пылью или мглою.
Явления - указаны атмосферные явления, наблюдавшиеся в срок или в последний час перед сроком; фигурными скобками обозначены явления, наблюдавшиеся между сроками (за 1-3 часа до срока); квадратными скобками обозначены град или гололедные отложения с указанием их диаметра в мм.
Облачность - указаны через наклонную черту общая и нижняя облачность в баллах и высота нижней границы облаков в метрах; квадратными скобками обозначены формы облаков: Ci - перистые, Cs - перисто-слоистые, Cc - перисто-кучевые, Ac - высококучевые, As - высокослоистые, Sc - слоисто-кучевые, Ns - слоисто-дождевые, Cu - кучевые, Cb - кучево-дождевые. Подробнее классификацию облаков см. в Атласе облаков (PDF).
T - Температура воздуха - температура, измеренная на высоте 2 м над землей.
Td - Температура точки росы - температура, при понижении до которой содержащийся в воздухе водяной пар достигнет насыщения.
f - Относительная влажность воздуха - влажноcть воздуха, измеренная на высоте 2 м над землей.
Te - Эффективная температура - температура, которую ощущает одетый по сезону человек в тени. Характеристика душности погоды. При расчете учитывается влияние влажности воздуха и скорости ветра на теплоощущения человека.
Tes - Эффективная температура на солнце - температура, которую ощущает человек, с поправкой на солнечный нагрев. Характеристика знойности погоды. Зависит от высоты солнца над горизонтом, облачности и скорости ветра. Ночью, в пасмурную погоду, а также при ветре 12 м/с и более поправка равна нулю.
P - Атмосферное давление - приведенное к уровню моря атмосферное давление.
Po - Атмосферное давление - измеренное на уровне метеостанции атмосферное давление.
Tmin - Минимальная температура - минимум температуры воздуха на высоте 2 м над землей.
Tmax - Максимальная температура - максимум температуры воздуха на высоте 2 м над землей.
R - Количество осадков - Количество выпавших осадков за период времени, мм. При наведении курсора мыши на число - период времени, за который выпало указанное количество осадков.
R24 - Количество осадков - Количество выпавших осадков за 24 часа, мм.
S - Снежный покров - Высота снежного покрова, см. При наведении курсора мыши на число - состояние снежного покрова и степень покрытия местности в баллах.